Year,Month,Day,Hour,Minute,Value (Times are PST for temperature in C)
2011,05,01,00,00,4.60
2011,05,01,00,01,4.60
2011,05,01,00,02,4.60
2011,05,01,00,03,4.60
2011,05,01,00,04,4.60
2011,05,01,00,05,4.70
2011,05,01,00,06,4.70
2011,05,01,00,07,4.70
2011,05,01,00,08,4.70
2011,05,01,00,09,4.70
2011,05,01,00,10,4.70
2011,05,01,00,11,4.70
2011,05,01,00,12,4.70
2011,05,01,00,13,4.70
2011,05,01,00,14,4.70
2011,05,01,00,15,4.70
2011,05,01,00,16,4.80
2011,05,01,00,17,4.80
2011,05,01,00,18,4.80
2011,05,01,00,19,4.90
2011,05,01,00,20,4.90
2011,05,01,00,21,4.90
2011,05,01,00,22,4.90
2011,05,01,00,23,4.90
2011,05,01,00,24,5.00
2011,05,01,00,25,5.00
2011,05,01,00,26,5.00
2011,05,01,00,27,4.90
2011,05,01,00,28,4.90
2011,05,01,00,29,4.90
2011,05,01,00,30,4.80
2011,05,01,00,31,4.80
2011,05,01,00,32,4.80
2011,05,01,00,33,4.80
2011,05,01,00,34,4.80
2011,05,01,00,35,4.80
2011,05,01,00,36,4.70
2011,05,01,00,37,4.70
2011,05,01,00,38,4.60
2011,05,01,00,39,4.60
2011,05,01,00,40,4.50
2011,05,01,00,41,4.50
2011,05,01,00,42,4.50
2011,05,01,00,43,4.50
2011,05,01,00,44,4.50
2011,05,01,00,45,4.40
2011,05,01,00,46,4.40
2011,05,01,00,47,4.40
2011,05,01,00,48,4.40
2011,05,01,00,49,4.40
2011,05,01,00,50,4.40
2011,05,01,00,51,4.40
2011,05,01,00,52,4.50
2011,05,01,00,53,4.50
2011,05,01,00,54,4.40
2011,05,01,00,55,4.40
2011,05,01,00,56,4.40
2011,05,01,00,57,4.40
2011,05,01,00,58,4.40
2011,05,01,00,59,4.40
2011,05,01,01,00,4.40
2011,05,01,01,01,4.40
2011,05,01,01,02,4.40
2011,05,01,01,03,4.40
2011,05,01,01,04,4.40
2011,05,01,01,05,4.40
2011,05,01,01,06,4.40
2011,05,01,01,07,4.40
2011,05,01,01,08,4.40
2011,05,01,01,09,4.40
2011,05,01,01,10,4.40
2011,05,01,01,11,4.40
2011,05,01,01,12,4.30
2011,05,01,01,13,4.30
2011,05,01,01,14,4.30
2011,05,01,01,15,4.30
2011,05,01,01,16,4.20
2011,05,01,01,17,4.20
2011,05,01,01,18,4.20
2011,05,01,01,19,4.20
2011,05,01,01,20,4.20
2011,05,01,01,21,4.20
2011,05,01,01,22,4.20
2011,05,01,01,23,4.20
2011,05,01,01,24,4.20
2011,05,01,01,25,4.20
2011,05,01,01,26,4.10
2011,05,01,01,27,4.10
2011,05,01,01,28,4.10
2011,05,01,01,29,4.10
2011,05,01,01,30,4.00
2011,05,01,01,31,4.00
2011,05,01,01,32,4.00
2011,05,01,01,33,4.00
2011,05,01,01,34,3.90
2011,05,01,01,35,3.90
2011,05,01,01,36,3.90
2011,05,01,01,37,3.90
2011,05,01,01,38,3.90
2011,05,01,01,39,3.90
2011,05,01,01,40,3.90
2011,05,01,01,41,3.80
2011,05,01,01,42,3.80
2011,05,01,01,43,3.80
2011,05,01,01,44,3.70
2011,05,01,01,45,3.70
2011,05,01,01,46,3.60
2011,05,01,01,47,3.60
2011,05,01,01,48,3.50
2011,05,01,01,49,3.50
2011,05,01,01,50,3.50
2011,05,01,01,51,3.50
2011,05,01,01,52,3.50
2011,05,01,01,53,3.40
2011,05,01,01,54,3.40
2011,05,01,01,55,3.40
2011,05,01,01,56,3.40
2011,05,01,01,57,3.40
2011,05,01,01,58,3.50
2011,05,01,01,59,3.50
2011,05,01,02,00,3.50
2011,05,01,02,01,3.50
2011,05,01,02,02,3.50
2011,05,01,02,03,3.50
2011,05,01,02,04,3.50
2011,05,01,02,05,3.60
2011,05,01,02,06,3.60
2011,05,01,02,07,3.60
2011,05,01,02,08,3.60
2011,05,01,02,09,3.60
2011,05,01,02,10,3.60
2011,05,01,02,11,3.60
2011,05,01,02,12,3.60
2011,05,01,02,13,3.60
2011,05,01,02,14,3.60
2011,05,01,02,15,3.60
2011,05,01,02,16,3.60
2011,05,01,02,17,3.60
2011,05,01,02,18,3.50
2011,05,01,02,19,3.50
2011,05,01,02,20,3.50
2011,05,01,02,21,3.40
2011,05,01,02,22,3.40
2011,05,01,02,23,3.30
2011,05,01,02,24,3.30
2011,05,01,02,25,3.30
2011,05,01,02,26,3.20
2011,05,01,02,27,3.20
2011,05,01,02,28,3.20
2011,05,01,02,29,3.20
2011,05,01,02,30,3.20
2011,05,01,02,31,3.20
2011,05,01,02,32,3.20
2011,05,01,02,33,3.20
2011,05,01,02,34,3.20
2011,05,01,02,35,3.20
2011,05,01,02,36,3.20
2011,05,01,02,37,3.20
2011,05,01,02,38,3.20
2011,05,01,02,39,3.20
2011,05,01,02,40,3.20
2011,05,01,02,41,3.10
2011,05,01,02,42,3.10
2011,05,01,02,43,3.10
2011,05,01,02,44,3.10
2011,05,01,02,45,3.00
2011,05,01,02,46,3.00
2011,05,01,02,47,3.00
2011,05,01,02,48,3.00
2011,05,01,02,49,3.00
2011,05,01,02,50,3.00
2011,05,01,02,51,3.10
2011,05,01,02,52,3.10
2011,05,01,02,53,3.10
2011,05,01,02,54,3.10
2011,05,01,02,55,3.10
2011,05,01,02,56,3.20
2011,05,01,02,57,3.20
2011,05,01,02,58,3.30
2011,05,01,02,59,3.30
2011,05,01,03,00,3.30
2011,05,01,03,01,3.30
2011,05,01,03,02,3.20
2011,05,01,03,03,3.20
2011,05,01,03,04,3.20
2011,05,01,03,05,3.10
2011,05,01,03,06,3.10
2011,05,01,03,07,3.00
2011,05,01,03,08,3.00
2011,05,01,03,09,3.00
2011,05,01,03,10,3.00
2011,05,01,03,11,3.00
2011,05,01,03,12,3.00
2011,05,01,03,13,3.00
2011,05,01,03,14,3.00
2011,05,01,03,15,3.00
2011,05,01,03,16,3.00
2011,05,01,03,17,3.00
2011,05,01,03,18,2.90
2011,05,01,03,19,2.90
2011,05,01,03,20,2.80
2011,05,01,03,21,2.80
2011,05,01,03,22,2.80
2011,05,01,03,23,2.80
2011,05,01,03,24,2.80
2011,05,01,03,25,2.90
2011,05,01,03,26,2.90
2011,05,01,03,27,3.00
2011,05,01,03,28,3.00
2011,05,01,03,29,3.00
2011,05,01,03,30,3.00
2011,05,01,03,31,3.00
2011,05,01,03,32,2.90
2011,05,01,03,33,2.90
2011,05,01,03,34,2.90
2011,05,01,03,35,2.80
2011,05,01,03,36,2.80
2011,05,01,03,37,2.80
2011,05,01,03,38,2.80
2011,05,01,03,39,2.70
2011,05,01,03,40,2.70
2011,05,01,03,41,2.70
2011,05,01,03,42,2.70
2011,05,01,03,43,2.70
2011,05,01,03,44,2.70
2011,05,01,03,45,2.70
2011,05,01,03,46,2.70
2011,05,01,03,47,2.70
2011,05,01,03,48,2.70
2011,05,01,03,49,2.60
2011,05,01,03,50,2.60
2011,05,01,03,51,2.60
2011,05,01,03,52,2.60
2011,05,01,03,53,2.60
2011,05,01,03,54,2.70
2011,05,01,03,55,2.70
2011,05,01,03,56,2.70
2011,05,01,03,57,2.70
2011,05,01,03,58,2.60
2011,05,01,03,59,2.60
2011,05,01,04,00,2.60
2011,05,01,04,01,2.60
2011,05,01,04,02,2.60
2011,05,01,04,03,2.50
2011,05,01,04,04,2.50
2011,05,01,04,05,2.50
2011,05,01,04,06,2.50
2011,05,01,04,07,2.50
2011,05,01,04,08,2.50
2011,05,01,04,09,2.50
2011,05,01,04,10,2.50
2011,05,01,04,11,2.40
2011,05,01,04,12,2.40
2011,05,01,04,13,2.40
2011,05,01,04,14,2.40
2011,05,01,04,15,2.40
2011,05,01,04,16,2.30
2011,05,01,04,17,2.30
2011,05,01,04,18,2.30
2011,05,01,04,19,2.30
2011,05,01,04,20,2.30
2011,05,01,04,21,2.30
2011,05,01,04,22,2.30
2011,05,01,04,23,2.30
2011,05,01,04,24,2.30
2011,05,01,04,25,2.30
2011,05,01,04,26,2.30
2011,05,01,04,27,2.30
2011,05,01,04,28,2.30
2011,05,01,04,29,2.30
2011,05,01,04,30,2.30
2011,05,01,04,31,2.30
2011,05,01,04,32,2.30
2011,05,01,04,33,2.30
2011,05,01,04,34,2.30
2011,05,01,04,35,2.40
2011,05,01,04,36,2.30
2011,05,01,04,37,2.40
2011,05,01,04,38,2.30
2011,05,01,04,39,2.30
2011,05,01,04,40,2.30
2011,05,01,04,41,2.30
2011,05,01,04,42,2.30
2011,05,01,04,43,2.30
2011,05,01,04,44,2.30
2011,05,01,04,45,2.30
2011,05,01,04,46,2.30
2011,05,01,04,47,2.30
2011,05,01,04,48,2.30
2011,05,01,04,49,2.30
2011,05,01,04,50,2.30
2011,05,01,04,51,2.30
2011,05,01,04,52,2.30
2011,05,01,04,53,2.40
2011,05,01,04,54,2.40
2011,05,01,04,55,2.50
2011,05,01,04,56,2.60
2011,05,01,04,57,2.60
2011,05,01,04,58,2.60
2011,05,01,04,59,2.60
2011,05,01,05,00,2.50
2011,05,01,05,01,2.50
2011,05,01,05,02,2.40
2011,05,01,05,03,2.40
2011,05,01,05,04,2.30
2011,05,01,05,05,2.30
2011,05,01,05,06,2.30
2011,05,01,05,07,2.20
2011,05,01,05,08,2.20
2011,05,01,05,09,2.20
2011,05,01,05,10,2.20
2011,05,01,05,11,2.20
2011,05,01,05,12,2.20
2011,05,01,05,13,2.20
2011,05,01,05,14,2.30
2011,05,01,05,15,2.30
2011,05,01,05,16,2.50
2011,05,01,05,17,2.60
2011,05,01,05,18,2.80
2011,05,01,05,19,2.90
2011,05,01,05,20,3.00
2011,05,01,05,21,3.00
2011,05,01,05,22,3.00
2011,05,01,05,23,2.90
2011,05,01,05,24,2.90
2011,05,01,05,25,2.90
2011,05,01,05,26,2.80
2011,05,01,05,27,2.80
2011,05,01,05,28,2.70
2011,05,01,05,29,2.70
2011,05,01,05,30,2.60
2011,05,01,05,31,2.50
2011,05,01,05,32,2.50
2011,05,01,05,33,2.40
2011,05,01,05,34,2.40
2011,05,01,05,35,2.30
2011,05,01,05,36,2.30
2011,05,01,05,37,2.30
2011,05,01,05,38,2.30
2011,05,01,05,39,2.30
2011,05,01,05,40,2.40
2011,05,01,05,41,2.40
2011,05,01,05,42,2.40
2011,05,01,05,43,2.50
2011,05,01,05,44,2.50
2011,05,01,05,45,2.50
2011,05,01,05,46,2.60
2011,05,01,05,47,2.60
2011,05,01,05,48,2.60
2011,05,01,05,49,2.70
2011,05,01,05,50,2.80
2011,05,01,05,51,2.80
2011,05,01,05,52,2.90
2011,05,01,05,53,3.00
2011,05,01,05,54,3.10
2011,05,01,05,55,3.20
2011,05,01,05,56,3.20
2011,05,01,05,57,3.30
2011,05,01,05,58,3.20
2011,05,01,05,59,3.30
2011,05,01,06,00,3.30
2011,05,01,06,01,3.30
2011,05,01,06,02,3.30
2011,05,01,06,03,3.40
2011,05,01,06,04,3.40
2011,05,01,06,05,3.40
2011,05,01,06,06,3.40
2011,05,01,06,07,3.40
2011,05,01,06,08,3.40
2011,05,01,06,09,3.40
2011,05,01,06,10,3.40
2011,05,01,06,11,3.30
2011,05,01,06,12,3.30
2011,05,01,06,13,3.20
2011,05,01,06,14,3.10
2011,05,01,06,15,3.00
2011,05,01,06,16,3.00
2011,05,01,06,17,2.90
2011,05,01,06,18,2.80
2011,05,01,06,19,2.80
2011,05,01,06,20,2.70
2011,05,01,06,21,2.70
2011,05,01,06,22,2.70
2011,05,01,06,23,2.70
2011,05,01,06,24,2.70
2011,05,01,06,25,2.70
2011,05,01,06,26,2.70
2011,05,01,06,27,2.70
2011,05,01,06,28,2.70
2011,05,01,06,29,2.80
2011,05,01,06,30,2.80
2011,05,01,06,31,2.90
2011,05,01,06,32,3.00
2011,05,01,06,33,3.10
2011,05,01,06,34,3.20
2011,05,01,06,35,3.30
2011,05,01,06,36,3.40
2011,05,01,06,37,3.50
2011,05,01,06,38,3.50
2011,05,01,06,39,3.60
2011,05,01,06,40,3.50
2011,05,01,06,41,3.50
2011,05,01,06,42,3.40
2011,05,01,06,43,3.40
2011,05,01,06,44,3.50
2011,05,01,06,45,3.60
2011,05,01,06,46,3.70
2011,05,01,06,47,3.70
2011,05,01,06,48,3.80
2011,05,01,06,49,3.90
2011,05,01,06,50,3.90
2011,05,01,06,51,4.00
2011,05,01,06,52,4.00
2011,05,01,06,53,4.10
2011,05,01,06,54,4.10
2011,05,01,06,55,4.20
2011,05,01,06,56,4.20
2011,05,01,06,57,4.20
2011,05,01,06,58,4.30
2011,05,01,06,59,4.30
2011,05,01,07,00,4.40
2011,05,01,07,01,4.40
2011,05,01,07,02,4.50
2011,05,01,07,03,4.50
2011,05,01,07,04,4.60
2011,05,01,07,05,4.60
2011,05,01,07,06,4.70
2011,05,01,07,07,4.70
2011,05,01,07,08,4.80
2011,05,01,07,09,4.80
2011,05,01,07,10,4.90
2011,05,01,07,11,4.90
2011,05,01,07,12,4.90
2011,05,01,07,13,5.00
2011,05,01,07,14,5.10
2011,05,01,07,15,5.10
2011,05,01,07,16,5.10
2011,05,01,07,17,5.20
2011,05,01,07,18,5.20
2011,05,01,07,19,5.30
2011,05,01,07,20,5.30
2011,05,01,07,21,5.30
2011,05,01,07,22,5.40
2011,05,01,07,23,5.40
2011,05,01,07,24,5.40
2011,05,01,07,25,5.50
2011,05,01,07,26,5.50
2011,05,01,07,27,5.50
2011,05,01,07,28,5.60
2011,05,01,07,29,5.60
2011,05,01,07,30,5.60
2011,05,01,07,31,5.70
2011,05,01,07,32,5.70
2011,05,01,07,33,5.70
2011,05,01,07,34,5.80
2011,05,01,07,35,5.80
2011,05,01,07,36,5.90
2011,05,01,07,37,5.90
2011,05,01,07,38,5.90
2011,05,01,07,39,6.00
2011,05,01,07,40,6.10
2011,05,01,07,41,6.10
2011,05,01,07,42,6.20
2011,05,01,07,43,6.20
2011,05,01,07,44,6.30
2011,05,01,07,45,6.30
2011,05,01,07,46,6.30
2011,05,01,07,47,6.40
2011,05,01,07,48,6.40
2011,05,01,07,49,6.50
2011,05,01,07,50,6.50
2011,05,01,07,51,6.60
2011,05,01,07,52,6.60
2011,05,01,07,53,6.60
2011,05,01,07,54,6.70
2011,05,01,07,55,6.70
2011,05,01,07,56,6.70
2011,05,01,07,57,6.70
2011,05,01,07,58,6.70
2011,05,01,07,59,6.80
2011,05,01,08,00,6.80
2011,05,01,08,01,6.80
2011,05,01,08,02,6.80
2011,05,01,08,03,6.90
2011,05,01,08,04,6.90
2011,05,01,08,05,6.90
2011,05,01,08,06,6.90
2011,05,01,08,07,6.90
2011,05,01,08,08,7.00
2011,05,01,08,09,7.00
2011,05,01,08,10,7.10
2011,05,01,08,11,7.10
2011,05,01,08,12,7.20
2011,05,01,08,13,7.20
2011,05,01,08,14,7.20
2011,05,01,08,15,7.20
2011,05,01,08,16,7.30
2011,05,01,08,17,7.30
2011,05,01,08,18,7.30
2011,05,01,08,19,7.40
2011,05,01,08,20,7.40
2011,05,01,08,21,7.40
2011,05,01,08,22,7.50
2011,05,01,08,23,7.50
2011,05,01,08,24,7.50
2011,05,01,08,25,7.60
2011,05,01,08,26,7.60
2011,05,01,08,27,7.60
2011,05,01,08,28,7.60
2011,05,01,08,29,7.60
2011,05,01,08,30,7.70
2011,05,01,08,31,7.70
2011,05,01,08,32,7.70
2011,05,01,08,33,7.70
2011,05,01,08,34,7.80
2011,05,01,08,35,7.80
2011,05,01,08,36,7.80
2011,05,01,08,37,7.80
2011,05,01,08,38,7.80
2011,05,01,08,39,7.80
2011,05,01,08,40,7.90
2011,05,01,08,41,8.00
2011,05,01,08,42,8.00
2011,05,01,08,43,8.10
2011,05,01,08,44,8.10
2011,05,01,08,45,8.20
2011,05,01,08,46,8.20
2011,05,01,08,47,8.20
2011,05,01,08,48,8.20
2011,05,01,08,49,8.20
2011,05,01,08,50,8.20
2011,05,01,08,51,8.30
2011,05,01,08,52,8.30
2011,05,01,08,53,8.30
2011,05,01,08,54,8.30
2011,05,01,08,55,8.30
2011,05,01,08,56,8.30
2011,05,01,08,57,8.20
2011,05,01,08,58,8.20
2011,05,01,08,59,8.20
2011,05,01,09,00,8.20
2011,05,01,09,01,8.10
2011,05,01,09,02,8.10
2011,05,01,09,03,8.10
2011,05,01,09,04,8.10
2011,05,01,09,05,8.10
2011,05,01,09,06,8.20
2011,05,01,09,07,8.20
2011,05,01,09,08,8.30
2011,05,01,09,09,8.30
2011,05,01,09,10,8.40
2011,05,01,09,11,8.50
2011,05,01,09,12,8.50
2011,05,01,09,13,8.60
2011,05,01,09,14,8.70
2011,05,01,09,15,8.80
2011,05,01,09,16,8.80
2011,05,01,09,17,8.80
2011,05,01,09,18,8.90
2011,05,01,09,19,8.90
2011,05,01,09,20,8.90
2011,05,01,09,21,8.90
2011,05,01,09,22,8.90
2011,05,01,09,23,8.90
2011,05,01,09,24,9.00
2011,05,01,09,25,9.10
2011,05,01,09,26,9.10
2011,05,01,09,27,9.10
2011,05,01,09,28,9.10
2011,05,01,09,29,9.10
2011,05,01,09,30,9.10
2011,05,01,09,31,9.10
2011,05,01,09,32,9.10
2011,05,01,09,33,9.20
2011,05,01,09,34,9.20
2011,05,01,09,35,9.20
2011,05,01,09,36,9.20
2011,05,01,09,37,9.30
2011,05,01,09,38,9.30
2011,05,01,09,39,9.30
2011,05,01,09,40,9.30
2011,05,01,09,41,9.30
2011,05,01,09,42,9.40
2011,05,01,09,43,9.40
2011,05,01,09,44,9.40
2011,05,01,09,45,9.40
2011,05,01,09,46,9.40
2011,05,01,09,47,9.40
2011,05,01,09,48,9.40
2011,05,01,09,49,9.40
2011,05,01,09,50,9.40
2011,05,01,09,51,9.50
2011,05,01,09,52,9.50
2011,05,01,09,53,9.60
2011,05,01,09,54,9.60
2011,05,01,09,55,9.60
2011,05,01,09,56,9.60
2011,05,01,09,57,9.60
2011,05,01,09,58,9.60
2011,05,01,09,59,9.60
2011,05,01,10,00,9.60
2011,05,01,10,01,9.60
2011,05,01,10,02,9.60
2011,05,01,10,03,9.60
2011,05,01,10,04,9.60
2011,05,01,10,05,9.70
2011,05,01,10,06,9.80
2011,05,01,10,07,9.80
2011,05,01,10,08,9.90
2011,05,01,10,09,9.90
2011,05,01,10,10,9.90
2011,05,01,10,11,9.90
2011,05,01,10,12,9.90
2011,05,01,10,13,9.80
2011,05,01,10,14,9.70
2011,05,01,10,15,9.70
2011,05,01,10,16,9.70
2011,05,01,10,17,9.70
2011,05,01,10,18,9.70
2011,05,01,10,19,9.80
2011,05,01,10,20,9.90
2011,05,01,10,21,9.90
2011,05,01,10,22,9.90
2011,05,01,10,23,10.00
2011,05,01,10,24,10.00
2011,05,01,10,25,10.10
2011,05,01,10,26,10.10
2011,05,01,10,27,10.20
2011,05,01,10,28,10.20
2011,05,01,10,29,10.20
2011,05,01,10,30,10.30
2011,05,01,10,31,10.30
2011,05,01,10,32,10.30
2011,05,01,10,33,10.30
2011,05,01,10,34,10.30
2011,05,01,10,35,10.30
2011,05,01,10,36,10.40
2011,05,01,10,37,10.50
2011,05,01,10,38,10.60
2011,05,01,10,39,10.60
2011,05,01,10,40,10.60
2011,05,01,10,41,10.70
2011,05,01,10,42,10.70
2011,05,01,10,43,10.80
2011,05,01,10,44,10.90
2011,05,01,10,45,11.00
2011,05,01,10,46,11.10
2011,05,01,10,47,11.30
2011,05,01,10,48,11.40
2011,05,01,10,49,11.50
2011,05,01,10,50,11.50
2011,05,01,10,51,11.50
2011,05,01,10,52,11.50
2011,05,01,10,53,11.30
2011,05,01,10,54,11.30
2011,05,01,10,55,11.20
2011,05,01,10,56,11.30
2011,05,01,10,57,11.30
2011,05,01,10,58,11.20
2011,05,01,10,59,11.20
2011,05,01,11,00,11.20
2011,05,01,11,01,11.20
2011,05,01,11,02,11.20
2011,05,01,11,03,11.10
2011,05,01,11,04,11.00
2011,05,01,11,05,11.00
2011,05,01,11,06,11.00
2011,05,01,11,07,11.10
2011,05,01,11,08,11.10
2011,05,01,11,09,11.20
2011,05,01,11,10,11.20
2011,05,01,11,11,11.30
2011,05,01,11,12,11.30
2011,05,01,11,13,11.40
2011,05,01,11,14,11.50
2011,05,01,11,15,11.60
2011,05,01,11,16,11.60
2011,05,01,11,17,11.70
2011,05,01,11,18,11.80
2011,05,01,11,19,11.80
2011,05,01,11,20,11.80
2011,05,01,11,21,11.80
2011,05,01,11,22,11.80
2011,05,01,11,23,11.80
2011,05,01,11,24,11.80
2011,05,01,11,25,11.80
2011,05,01,11,26,11.70
2011,05,01,11,27,11.70
2011,05,01,11,28,11.70
2011,05,01,11,29,11.70
2011,05,01,11,30,11.70
2011,05,01,11,31,11.80
2011,05,01,11,32,11.80
2011,05,01,11,33,11.80
2011,05,01,11,34,11.90
2011,05,01,11,35,11.80
2011,05,01,11,36,11.80
2011,05,01,11,37,11.80
2011,05,01,11,38,11.80
2011,05,01,11,39,11.90
2011,05,01,11,40,11.90
2011,05,01,11,41,11.90
2011,05,01,11,42,11.90
2011,05,01,11,43,11.80
2011,05,01,11,44,11.80
2011,05,01,11,45,11.80
2011,05,01,11,46,11.80
2011,05,01,11,47,11.80
2011,05,01,11,48,11.90
2011,05,01,11,49,11.90
2011,05,01,11,50,12.00
2011,05,01,11,51,12.10
2011,05,01,11,52,12.20
2011,05,01,11,53,12.30
2011,05,01,11,54,12.30
2011,05,01,11,55,12.30
2011,05,01,11,56,12.30
2011,05,01,11,57,12.20
2011,05,01,11,58,12.10
2011,05,01,11,59,12.00
2011,05,01,12,00,11.90
2011,05,01,12,01,12.00
2011,05,01,12,02,12.10
2011,05,01,12,03,12.20
2011,05,01,12,04,12.30
2011,05,01,12,05,12.40
2011,05,01,12,06,12.50
2011,05,01,12,07,12.50
2011,05,01,12,08,12.40
2011,05,01,12,09,12.40
2011,05,01,12,10,12.40
2011,05,01,12,11,12.30
2011,05,01,12,12,12.20
2011,05,01,12,13,12.20
2011,05,01,12,14,12.10
2011,05,01,12,15,12.10
2011,05,01,12,16,12.10
2011,05,01,12,17,12.20
2011,05,01,12,18,12.10
2011,05,01,12,19,12.10
2011,05,01,12,20,12.10
2011,05,01,12,21,12.20
2011,05,01,12,22,12.20
2011,05,01,12,23,12.30
2011,05,01,12,24,12.30
2011,05,01,12,25,12.40
2011,05,01,12,26,12.40
2011,05,01,12,27,12.40
2011,05,01,12,28,12.40
2011,05,01,12,29,12.30
2011,05,01,12,30,12.30
2011,05,01,12,31,12.30
2011,05,01,12,32,12.40
2011,05,01,12,33,12.40
2011,05,01,12,34,12.50
2011,05,01,12,35,12.60
2011,05,01,12,36,12.80
2011,05,01,12,37,12.80
2011,05,01,12,38,12.80
2011,05,01,12,39,12.70
2011,05,01,12,40,12.70
2011,05,01,12,41,12.70
2011,05,01,12,42,12.60
2011,05,01,12,43,12.60
2011,05,01,12,44,12.50
2011,05,01,12,45,12.40
2011,05,01,12,46,12.30
2011,05,01,12,47,12.30
2011,05,01,12,48,12.30
2011,05,01,12,49,12.30
2011,05,01,12,50,12.20
2011,05,01,12,51,12.20
2011,05,01,12,52,12.10
2011,05,01,12,53,12.10
2011,05,01,12,54,12.20
2011,05,01,12,55,12.20
2011,05,01,12,56,12.20
2011,05,01,12,57,12.30
2011,05,01,12,58,12.20
2011,05,01,12,59,12.10
2011,05,01,13,00,12.10
2011,05,01,13,01,12.20
2011,05,01,13,02,12.20
2011,05,01,13,03,12.20
2011,05,01,13,04,12.20
2011,05,01,13,05,12.30
2011,05,01,13,06,12.30
2011,05,01,13,07,12.30
2011,05,01,13,08,12.20
2011,05,01,13,09,12.20
2011,05,01,13,10,12.10
2011,05,01,13,11,12.10
2011,05,01,13,12,12.10
2011,05,01,13,13,12.20
2011,05,01,13,14,12.30
2011,05,01,13,15,12.40
2011,05,01,13,16,12.40
2011,05,01,13,17,12.40
2011,05,01,13,18,12.40
2011,05,01,13,19,12.40
2011,05,01,13,20,12.50
2011,05,01,13,21,12.50
2011,05,01,13,22,12.40
2011,05,01,13,23,12.40
2011,05,01,13,24,12.40
2011,05,01,13,25,12.40
2011,05,01,13,26,12.40
2011,05,01,13,27,12.40
2011,05,01,13,28,12.50
2011,05,01,13,29,12.60
2011,05,01,13,30,12.60
2011,05,01,13,31,12.60
2011,05,01,13,32,12.60
2011,05,01,13,33,12.60
2011,05,01,13,34,12.70
2011,05,01,13,35,12.70
2011,05,01,13,36,12.70
2011,05,01,13,37,12.70
2011,05,01,13,38,12.70
2011,05,01,13,39,12.80
2011,05,01,13,40,12.70
2011,05,01,13,41,12.70
2011,05,01,13,42,12.70
2011,05,01,13,43,12.70
2011,05,01,13,44,12.60
2011,05,01,13,45,12.60
2011,05,01,13,46,12.60
2011,05,01,13,47,12.60
2011,05,01,13,48,12.60
2011,05,01,13,49,12.60
2011,05,01,13,50,12.70
2011,05,01,13,51,12.60
2011,05,01,13,52,12.60
2011,05,01,13,53,12.60
2011,05,01,13,54,12.60
2011,05,01,13,55,12.60
2011,05,01,13,56,12.60
2011,05,01,13,57,12.60
2011,05,01,13,58,12.60
2011,05,01,13,59,12.60
2011,05,01,14,00,12.70
2011,05,01,14,01,12.70
2011,05,01,14,02,12.80
2011,05,01,14,03,12.80
2011,05,01,14,04,12.90
2011,05,01,14,05,12.90
2011,05,01,14,06,13.00
2011,05,01,14,07,13.10
2011,05,01,14,08,13.10
2011,05,01,14,09,13.10
2011,05,01,14,10,13.10
2011,05,01,14,11,13.10
2011,05,01,14,12,13.10
2011,05,01,14,13,13.10
2011,05,01,14,14,13.10
2011,05,01,14,15,13.10
2011,05,01,14,16,13.00
2011,05,01,14,17,13.00
2011,05,01,14,18,12.90
2011,05,01,14,19,12.70
2011,05,01,14,20,12.60
2011,05,01,14,21,12.40
2011,05,01,14,22,12.20
2011,05,01,14,23,12.10
2011,05,01,14,24,12.00
2011,05,01,14,25,12.00
2011,05,01,14,26,12.00
2011,05,01,14,27,12.10
2011,05,01,14,28,12.10
2011,05,01,14,29,12.10
2011,05,01,14,30,12.10
2011,05,01,14,31,12.10
2011,05,01,14,32,12.10
2011,05,01,14,33,12.10
2011,05,01,14,34,12.20
2011,05,01,14,35,12.20
2011,05,01,14,36,12.20
2011,05,01,14,37,12.20
2011,05,01,14,38,12.20
2011,05,01,14,39,12.30
2011,05,01,14,40,12.40
2011,05,01,14,41,12.40
2011,05,01,14,42,12.50
2011,05,01,14,43,12.50
2011,05,01,14,44,12.50
2011,05,01,14,45,12.50
2011,05,01,14,46,12.50
2011,05,01,14,47,12.40
2011,05,01,14,48,12.40
2011,05,01,14,49,12.40
2011,05,01,14,50,12.40
2011,05,01,14,51,12.40
2011,05,01,14,52,12.40
2011,05,01,14,53,12.40
2011,05,01,14,54,12.40
2011,05,01,14,55,12.40
2011,05,01,14,56,12.40
2011,05,01,14,57,12.50
2011,05,01,14,58,12.50
2011,05,01,14,59,12.60
2011,05,01,15,00,12.60
2011,05,01,15,01,12.70
2011,05,01,15,02,12.70
2011,05,01,15,03,12.70
2011,05,01,15,04,12.80
2011,05,01,15,05,12.80
2011,05,01,15,06,12.90
2011,05,01,15,07,13.00
2011,05,01,15,08,13.00
2011,05,01,15,09,13.00
2011,05,01,15,10,12.90
2011,05,01,15,11,13.00
2011,05,01,15,12,13.10
2011,05,01,15,13,13.20
2011,05,01,15,14,13.30
2011,05,01,15,15,13.30
2011,05,01,15,16,13.30
2011,05,01,15,17,13.30
2011,05,01,15,18,13.30
2011,05,01,15,19,13.30
2011,05,01,15,20,13.30
2011,05,01,15,21,13.30
2011,05,01,15,22,13.30
2011,05,01,15,23,13.20
2011,05,01,15,24,13.10
2011,05,01,15,25,13.10
2011,05,01,15,26,13.00
2011,05,01,15,27,13.10
2011,05,01,15,28,13.10
2011,05,01,15,29,13.10
2011,05,01,15,30,13.10
2011,05,01,15,31,13.10
2011,05,01,15,32,13.20
2011,05,01,15,33,13.30
2011,05,01,15,34,13.30
2011,05,01,15,35,13.30
2011,05,01,15,36,13.20
2011,05,01,15,37,13.20
2011,05,01,15,38,13.20
2011,05,01,15,39,13.10
2011,05,01,15,40,13.20
2011,05,01,15,41,13.10
2011,05,01,15,42,13.10
2011,05,01,15,43,13.10
2011,05,01,15,44,13.10
2011,05,01,15,45,13.10
2011,05,01,15,46,13.20
2011,05,01,15,47,13.20
2011,05,01,15,48,13.20
2011,05,01,15,49,13.30
2011,05,01,15,50,13.40
2011,05,01,15,51,13.50
2011,05,01,15,52,13.60
2011,05,01,15,53,13.70
2011,05,01,15,54,13.70
2011,05,01,15,55,13.70
2011,05,01,15,56,13.70
2011,05,01,15,57,13.70
2011,05,01,15,58,13.70
2011,05,01,15,59,13.70
2011,05,01,16,00,13.70
2011,05,01,16,01,13.70
2011,05,01,16,02,13.80
2011,05,01,16,03,13.70
2011,05,01,16,04,13.60
2011,05,01,16,05,13.60
2011,05,01,16,06,13.50
2011,05,01,16,07,13.40
2011,05,01,16,08,13.40
2011,05,01,16,09,13.40
2011,05,01,16,10,13.40
2011,05,01,16,11,13.30
2011,05,01,16,12,13.30
2011,05,01,16,13,13.30
2011,05,01,16,14,13.20
2011,05,01,16,15,13.30
2011,05,01,16,16,13.30
2011,05,01,16,17,13.30
2011,05,01,16,18,13.40
2011,05,01,16,19,13.50
2011,05,01,16,20,13.60
2011,05,01,16,21,13.70
2011,05,01,16,22,13.80
2011,05,01,16,23,13.80
2011,05,01,16,24,13.90
2011,05,01,16,25,13.90
2011,05,01,16,26,13.90
2011,05,01,16,27,13.80
2011,05,01,16,28,13.80
2011,05,01,16,29,13.70
2011,05,01,16,30,13.60
2011,05,01,16,31,13.50
2011,05,01,16,32,13.50
2011,05,01,16,33,13.60
2011,05,01,16,34,13.60
2011,05,01,16,35,13.60
2011,05,01,16,36,13.60
2011,05,01,16,37,13.60
2011,05,01,16,38,13.50
2011,05,01,16,39,13.50
2011,05,01,16,40,13.50
2011,05,01,16,41,13.50
2011,05,01,16,42,13.50
2011,05,01,16,43,13.60
2011,05,01,16,44,13.60
2011,05,01,16,45,13.70
2011,05,01,16,46,13.70
2011,05,01,16,47,13.80
2011,05,01,16,48,13.80
2011,05,01,16,49,13.90
2011,05,01,16,50,14.00
2011,05,01,16,51,14.00
2011,05,01,16,52,14.10
2011,05,01,16,53,14.10
2011,05,01,16,54,14.10
2011,05,01,16,55,14.10
2011,05,01,16,56,14.10
2011,05,01,16,57,14.10
2011,05,01,16,58,14.10
2011,05,01,16,59,14.20
2011,05,01,17,00,14.20
2011,05,01,17,01,14.20
2011,05,01,17,02,14.10
2011,05,01,17,03,13.90
2011,05,01,17,04,13.90
2011,05,01,17,05,13.80
2011,05,01,17,06,13.80
2011,05,01,17,07,13.80
2011,05,01,17,08,13.70
2011,05,01,17,09,13.70
2011,05,01,17,10,13.70
2011,05,01,17,11,13.70
2011,05,01,17,12,13.70
2011,05,01,17,13,13.80
2011,05,01,17,14,13.80
2011,05,01,17,15,13.80
2011,05,01,17,16,13.80
2011,05,01,17,17,13.70
2011,05,01,17,18,13.70
2011,05,01,17,19,13.70
2011,05,01,17,20,13.60
2011,05,01,17,21,13.60
2011,05,01,17,22,13.60
2011,05,01,17,23,13.60
2011,05,01,17,24,13.60
2011,05,01,17,25,13.50
2011,05,01,17,26,13.60
2011,05,01,17,27,13.50
2011,05,01,17,28,13.50
2011,05,01,17,29,13.60
2011,05,01,17,30,13.60
2011,05,01,17,31,13.60
2011,05,01,17,32,13.50
2011,05,01,17,33,13.50
2011,05,01,17,34,13.40
2011,05,01,17,35,13.50
2011,05,01,17,36,13.40
2011,05,01,17,37,13.40
2011,05,01,17,38,13.50
2011,05,01,17,39,13.50
2011,05,01,17,40,13.50
2011,05,01,17,41,13.50
2011,05,01,17,42,13.50
2011,05,01,17,43,13.50
2011,05,01,17,44,13.50
2011,05,01,17,45,13.60
2011,05,01,17,46,13.60